User: anonymous   Login
Location: Ferma
(41.9500°N, 44.5167°E)
Time: 22:42:27
(UTC+00:00)
Language:

Cosmos 2333 - Orbit

View from above orbital plane
View from above orbital plane
View from above satellite
View from above satellite

Ground track
Ground track

The orbit data is extracted from the following two-line orbital elements,

1 24297U 96051A   22026.58460731 -.00000230  00000-0 -96697-4 0  9999
2 24297  70.9063 108.7946 0024848 205.2187 154.7722 14.13375880309827
Epoch (UTC): 26 January 2022 14:01:50
Eccentricity: 0.0024848
inclination: 70.9063°
perigee height: 830 km
apogee height: 866 km
right ascension of ascending node: 108.7946°
argument of perigee: 205.2187°
revolutions per day: 14.13375880
mean anomaly at epoch: 154.7722°
orbit number at epoch: 30982

The dashed part of the orbit path shows where the satellite is in the earth's shadow,  

DLR